EST,Max TemperatureF,Mean TemperatureF,Min TemperatureF,Max Dew PointF,MeanDew PointF,Min DewpointF,Max Humidity, Mean Humidity, Min Humidity, Max Sea Level PressureIn, Mean Sea Level PressureIn, Min Sea Level PressureIn, Max VisibilityMiles, Mean VisibilityMiles, Min VisibilityMiles, Max Wind SpeedMPH, Mean Wind SpeedMPH, Max Gust SpeedMPH,PrecipitationIn, CloudCover, Events, WindDirDegrees
2014-2-1,56,40,24,45,31,20,92,66,39,30.19,30.13,30.08,10,10,8,13,2,16,0.02,4,,191
2014-2-2,55,44,33,51,42,30,96,87,77,30.12,30.04,29.88,9,3,0,15,2,18,1.05,7,Fog-Rain,25
2014-2-3,49,44,39,48,40,34,100,81,61,30.22,30.03,29.85,10,6,2,22,9,26,1.53,8,Rain,360
2014-2-4,50,45,40,45,39,34,93,82,70,30.24,30.09,29.91,10,9,3,14,6,18,0.02,8,Rain,77
2014-2-5,51,41,30,47,36,20,93,76,59,30.35,30.04,29.85,10,9,2,23,12,30,0.18,8,Rain,260
2014-2-6,37,33,28,23,20,18,75,66,56,30.43,30.37,30.32,10,10,10,17,10,24,T,7,,3
2014-2-7,42,33,23,26,22,20,81,62,43,30.43,30.34,30.27,10,10,8,9,5,,0.00,5,,2
2014-2-8,51,44,36,34,28,23,85,66,46,30.27,30.22,30.16,10,10,10,13,4,15,0.00,7,,356
2014-2-9,52,44,35,37,35,33,92,73,54,30.19,30.13,30.07,10,9,7,13,4,17,0.00,7,,321
2014-2-10,44,40,35,35,30,21,79,65,51,30.23,30.17,30.11,10,8,2,20,11,24,T,7,Rain-Snow,13
2014-2-11,42,37,31,28,21,18,82,63,43,30.32,30.26,30.22,10,9,2,17,7,20,T,7,Snow,17
2014-2-12,37,34,31,32,29,20,96,74,52,30.23,30.07,29.85,10,3,0,14,6,17,0.70,8,Rain-Snow,17
2014-2-13,47,40,32,32,29,20,96,65,34,29.88,29.82,29.78,10,6,1,14,6,19,0.20,5,Snow,324
2014-2-14,53,40,26,42,32,24,92,71,50,29.91,29.83,29.69,10,9,6,22,5,31,0.15,5,Rain,201
2014-2-15,44,37,29,38,23,18,100,69,38,30.15,30.03,29.70,10,10,10,26,8,34,T,5,Rain,322
2014-2-16,61,46,30,32,27,22,78,53,27,30.17,30.12,30.08,10,10,10,17,3,23,0.00,3,,278
2014-2-17,63,48,32,54,39,30,93,63,32,30.24,30.13,29.99,10,9,2,17,6,24,0.06,5,Rain,198
2014-2-18,67,49,31,55,36,27,100,64,27,30.25,30.16,29.99,10,5,0,17,3,24,0.17,4,Fog-Rain-Thunderstorm,190
2014-2-19,71,60,49,58,55,50,93,67,41,30.03,29.99,29.93,10,10,7,31,10,39,0.11,6,Rain,217
2014-2-20,71,62,53,60,57,51,93,80,66,30.03,29.94,29.78,10,8,5,18,8,25,T,7,Rain,177
2014-2-21,66,53,40,60,41,16,96,58,19,30.12,29.94,29.79,10,8,1,29,7,38,1.09,5,Rain-Thunderstorm,245
2014-2-22,68,52,35,34,28,12,89,51,12,30.21,30.11,30.02,10,10,10,14,2,17,0.00,2,,172
2014-2-23,72,57,41,38,32,28,76,48,20,30.07,30.01,29.91,10,10,10,17,4,23,0.00,4,,267
2014-2-24,58,48,37,35,24,16,70,45,20,30.23,30.15,30.07,10,10,10,20,9,23,0.00,2,,12
2014-2-25,61,49,36,30,25,19,70,48,25,30.14,30.06,29.97,10,10,10,17,5,20,0.01,4,Rain,8
2014-2-26,44,36,27,20,14,5,56,39,21,30.08,30.00,29.93,10,10,10,22,12,25,0.00,4,,346
2014-2-27,50,36,21,13,8,4,57,38,18,30.07,30.03,29.97,10,10,10,15,5,18,0.00,0,,330
2014-2-28,54,40,25,19,14,10,75,47,18,30.20,30.12,30.07,10,10,5,13,4,18,T,4,,140